TimeEST,TemperatureF,Dew PointF,Humidity,Sea Level PressureIn,VisibilityMPH,Wind Direction,Wind SpeedMPH,Gust SpeedMPH,PrecipitationIn,Events,Conditions,WindDirDegrees,DateUTC
12:51 AM,30.9,19.9,64,30.21,10.0,NNW,8.1,-,N/A,,Clear,340,2013-03-09 05:51:00
1:51 AM,28.9,19.0,67,30.20,10.0,NNW,6.9,-,N/A,,Clear,330,2013-03-09 06:51:00
2:51 AM,28.0,19.9,72,30.19,10.0,NNW,8.1,-,N/A,,Clear,330,2013-03-09 07:51:00
3:51 AM,18.0,16.0,92,30.20,10.0,Calm,Calm,-,N/A,,Clear,0,2013-03-09 08:51:00
4:51 AM,16.0,15.1,96,30.23,10.0,Calm,Calm,-,N/A,,Clear,0,2013-03-09 09:51:00
5:51 AM,18.0,15.1,88,30.24,10.0,Calm,Calm,-,N/A,,Clear,0,2013-03-09 10:51:00
6:51 AM,17.1,15.1,92,30.26,10.0,Calm,Calm,-,N/A,,Clear,0,2013-03-09 11:51:00
7:51 AM,27.0,21.9,81,30.26,10.0,Calm,Calm,-,N/A,,Clear,0,2013-03-09 12:51:00
8:51 AM,36.0,19.0,50,30.26,10.0,NNW,4.6,-,N/A,,Clear,340,2013-03-09 13:51:00
9:51 AM,39.0,19.9,46,30.26,10.0,WNW,4.6,-,N/A,,Clear,290,2013-03-09 14:51:00
10:51 AM,44.1,18.0,35,30.26,10.0,Calm,Calm,-,N/A,,Clear,0,2013-03-09 15:51:00
11:51 AM,46.9,15.1,28,30.25,10.0,Variable,3.5,-,N/A,,Clear,0,2013-03-09 16:51:00
12:51 PM,51.1,12.0,21,30.23,10.0,NNW,4.6,-,N/A,,Clear,330,2013-03-09 17:51:00
1:51 PM,53.1,5.0,14,30.22,10.0,North,6.9,-,N/A,,Clear,350,2013-03-09 18:51:00
2:51 PM,53.1,6.1,15,30.21,10.0,ENE,6.9,-,N/A,,Clear,70,2013-03-09 19:51:00
3:51 PM,53.1,8.1,16,30.22,10.0,NNE,9.2,-,N/A,,Clear,20,2013-03-09 20:51:00
4:51 PM,53.1,8.1,16,30.24,10.0,NNE,5.8,-,N/A,,Clear,30,2013-03-09 21:51:00
5:51 PM,44.1,26.1,49,30.28,10.0,ESE,6.9,-,N/A,,Clear,120,2013-03-09 22:51:00
6:51 PM,39.0,26.1,60,30.32,10.0,SSE,4.6,-,N/A,,Clear,150,2013-03-09 23:51:00
7:51 PM,37.0,26.1,65,30.33,10.0,ESE,4.6,-,N/A,,Clear,120,2013-03-10 00:51:00
8:51 PM,30.9,25.0,79,30.35,10.0,Calm,Calm,-,N/A,,Clear,0,2013-03-10 01:51:00
9:51 PM,30.0,25.0,82,30.35,10.0,Calm,Calm,-,N/A,,Clear,0,2013-03-10 02:51:00
10:51 PM,28.9,25.0,85,30.36,10.0,Calm,Calm,-,N/A,,Clear,0,2013-03-10 03:51:00
11:51 PM,27.0,24.1,89,30.37,10.0,Calm,Calm,-,N/A,,Clear,0,2013-03-10 04:51:00